This is the latest recevied weather packets stored in our database for station/object WD0REW. If no packets are shown the sender has not sent any weather packets the latest 1 day(s).
| Time | Temp. | Humidity | Pressure | Rain* | Wind** | Luminosity | Snow |
|---|---|---|---|---|---|---|---|
| 1778056365 | 7.22° C | 85% | 1013.3 hPa | 0 mm | 1.34 m/s, 354° | 0 W/m² | - |
| 1778056062 | 7.22° C | 86% | 1013.1 hPa | 0 mm | 0.45 m/s, 353° | 0 W/m² | - |
| 1778055757 | 7.22° C | 86% | 1012.8 hPa | 0 mm | 0.45 m/s, 355° | 0 W/m² | - |
| 1778055456 | 7.22° C | 87% | 1013.3 hPa | 0 mm | 0 m/s | 0 W/m² | - |
| 1778055153 | 7.22° C | 86% | 1013.3 hPa | 0 mm | 0.89 m/s, 358° | 0 W/m² | - |
| 1778054851 | 7.22° C | 86% | 1013 hPa | 0 mm | 0.45 m/s, 11° | 0 W/m² | - |
| 1778054547 | 7.22° C | 86% | 1013.4 hPa | 0 mm | 0 m/s | 0 W/m² | - |
| 1778054245 | 7.22° C | 86% | 1013.2 hPa | 0 mm | 1.34 m/s, 357° | 0 W/m² | - |
| 1778053941 | 7.22° C | 87% | 1013.1 hPa | 0 mm | 0.89 m/s, 358° | 0 W/m² | - |
| 1778053639 | 7.22° C | 87% | 1013.3 hPa | 0 mm | 0.45 m/s, 357° | 0 W/m² | - |
| 1778053336 | 7.22° C | 87% | 1013.5 hPa | 0 mm | 0.89 m/s, 356° | 0 W/m² | - |
| 1778053034 | 7.22° C | 87% | 1013.7 hPa | 0 mm | 1.34 m/s, 339° | 0 W/m² | - |
| 1778052731 | 7.22° C | 87% | 1013.8 hPa | 0 mm | 0.89 m/s, 344° | 0 W/m² | - |
| 1778052428 | 7.22° C | 86% | 1014.2 hPa | 0 mm | 0.45 m/s, 353° | 0 W/m² | - |
| 1778052125 | 7.22° C | 86% | 1014.4 hPa | 0 mm | 0.45 m/s, 7° | 0 W/m² | - |
| 1778051822 | 7.22° C | 86% | 1014.4 hPa | 0 mm | 0.45 m/s, 356° | 0 W/m² | - |
| 1778051520 | 7.22° C | 87% | 1014.3 hPa | 0 mm | 0 m/s | 0 W/m² | - |
| 1778051217 | 7.22° C | 87% | 1014.5 hPa | 0 mm | 0 m/s | 0 W/m² | - |
| 1778050914 | 7.22° C | 88% | 1014.3 hPa | 0 mm | 0.45 m/s, 356° | 0 W/m² | - |
| 1778050612 | 6.67° C | 87% | 1014.4 hPa | 0 mm | 0 m/s | 0 W/m² | - |
| 1778050309 | 6.67° C | 87% | 1014.4 hPa | 0 mm | 0.45 m/s, 357° | 0 W/m² | - |
| 1778050006 | 6.67° C | 88% | 1014.3 hPa | 0 mm | 0 m/s | 0 W/m² | - |
| 1778049701 | 6.67° C | 88% | 1014.4 hPa | 0 mm | 0 m/s | 0 W/m² | - |
| 1778049399 | 6.67° C | 88% | 1014.5 hPa | 0 mm | 0 m/s | 0 W/m² | - |
| 1778049096 | 6.67° C | 88% | 1014.6 hPa | 0 mm | 0.45 m/s, 358° | 0 W/m² | - |
* Rain latest hour (hover to see other rain measurements)
** Current wind speed in m/s (hover to see current wind gust speed)